Location: Pedholt
(56.0260°N, 10.2097°E)
Time: 06:15:36
(UTC+00:00)

Cosmos 921 Rocket - Pass Details

Date: 14 July 2020
Orbit: 572 x 631 km, 75.8° (Epoch: 14 August)

Event Time Altitude Azimuth Distance (km) Brightness Sun altitude
Rises 00:25:38 0° 337° (NNW) 2,918 7.4 -11.3°
Reaches altitude 10° 00:28:02 10° 345° (NNW) 1,999 6.7 -11.2°
Maximum altitude 00:32:14 39° 55° (NE) 935 4.5 -11.0°
Drops below altitude 10° 00:36:19 10° 125° (SE) 1,953 5.4 -10.9°
Sets 00:38:39 0° 133° (SE) 2,842 6.2 -10.8°
